Satellite-Ground Cal/Val Site Overpasses Predictions

Prediction of Satellite NPP Overpassing Cal/Val Site: Antarctic Dome C

Ground Cal/Val Site Location: Latitude: -75.10, Longitude: 123.35; Satellite-Ground Site NADIR distance within 100 km.

Table of predicted overpasses for the next 14.0 days since TLE Epoch: 1/29/2016
Interval Starting Time Ending Time Minimum Distance Time Minimum Distance (km)
1 01/30/2016 07:20:43 01/30/2016 07:21:03 01/30/2016 07:20:53 72.02
2 02/01/2016 15:02:56 02/01/2016 15:03:20 02/01/2016 15:03:08 56.21
3 02/02/2016 14:44:04 02/02/2016 14:44:29 02/02/2016 14:44:17 53.11
4 02/03/2016 07:45:45 02/03/2016 07:46:05 02/03/2016 07:45:55 73.04
5 02/04/2016 07:26:50 02/04/2016 07:27:18 02/04/2016 07:27:04 34.90
6 02/06/2016 15:09:14 02/06/2016 15:09:23 02/06/2016 15:09:18 93.68
7 02/07/2016 14:50:13 02/07/2016 14:50:42 02/07/2016 14:50:28 17.63


NCC Satellite Cal/Val Overpasses Prediction Service
